Regional Weather Roundup
Issued by NWS Portland, ME

Current Version | Previous Version | Text Only | Print | Product List | Glossary Off
Versions: 1 2 3 4 5 6 7 8 9 10 11 12 13 14 15 16 17 18 19 20 21 22 23 24 25 26 27 28 29 30 31 32 33 34 35 36 37 38 39 40 41 42 43 44 45 46 47 48 49 50
069 ASUS41 KGYX 111205 RWRGYX WEATHER ROUNDUP FOR MAINE AND NEW HAMPSHIRE NATIONAL WEATHER SERVICE GRAY ME 700 AM EST TUE DEC 11 2018 MEZ002-005-006-010-012-015-018-020-021-024-026-027-029-111300- MAINE CITY SKY/WX TMP DP RH WIND PRES REMARKS PORTLAND FAIR 11 6 81 NW5 30.21S 6HR MIN TEMP: 10; 6HR MAX TEMP: 15; SANFORD CLOUDY 10 7 87 CALM 30.20R BAR HARBOR FAIR 6 3 87 CALM 30.22S WISCASSET FAIR 5 2 87 CALM 30.22S 6HR MIN TEMP: 5; 6HR MAX TEMP: 9; FRYEBURG FAIR -4 -8 83 CALM 30.18R 6HR MIN TEMP: -5; 6HR MAX TEMP: 2; LEWISTONAUBURN FAIR 1 -2 87 N3 30.19S AUGUSTA FAIR 6 2 83 CALM 30.18F 6HR MIN TEMP: 5; 6HR MAX TEMP: 11; WATERVILLE FAIR 2 -1 88 MISG 30.15F BANGOR FAIR 6 3 87 CALM 30.20R 6HR MIN TEMP: 3; 6HR MAX TEMP: 10; GREENVILLE N/A 5 -1 76 N3 30.03F 6HR MIN TEMP: 2; 6HR MAX TEMP: 6; MILLINOCKET FAIR 1 -3 83 CALM 30.17S 6HR MIN TEMP: 0; 6HR MAX TEMP: 10; HOULTON FAIR -8 -12 83 CALM 30.14R 6HR MIN TEMP: -9; 6HR MAX TEMP: 6; PRESQUE ISLE FAIR -15 -20 78 CALM 30.15R 6HR MIN TEMP: -17; 6HR MAX TEMP: -9; FRENCHVILLE FAIR 1 -5 75 NW5 30.06F 6HR MIN TEMP: -3; 6HR MAX TEMP: 4; CARIBOU MOCLDY -8 -14 74 CALM 30.11S 6HR MIN TEMP: -9; 6HR MAX TEMP: 1; $$ NHZ002-005-008-009-011-012-014-111300- NEW HAMPSHIRE CITY SKY/WX TMP DP RH WIND PRES REMARKS PORTSMOUTH MOCLDY 17 10 73 NW3 30.18S ROCHESTER CLOUDY 14 10 84 NW5 30.18S 6HR MIN TEMP: 9; 6HR MAX TEMP: 15; NASHUA FAIR 10 9 95 CALM 30.19F MANCHESTER FAIR 13 9 84 CALM 30.17F 6HR MIN TEMP: 13; 6HR MAX TEMP: 18; CONCORD FAIR 6 2 83 CALM 30.18S 6HR MIN TEMP: 5; 6HR MAX TEMP: 11; LACONIA FAIR 7 4 87 CALM 30.16S PLYMOUTH FAIR 4 1 89 CALM 30.18S BERLIN FAIR -7 -12 79 SE3 30.10F 6HR MIN TEMP: -9; 6HR MAX TEMP: -5; WHITEFIELD FAIR -5 -11 75 CALM 30.11S 6HR MIN TEMP: -7; 6HR MAX TEMP: -3; JAFFREY FAIR 7 5 91 CALM 30.11F 6HR MIN TEMP: 6; 6HR MAX TEMP: 12; KEENE FAIR 6 2 83 CALM 30.17F LEBANON FAIR 7 1 76 CALM 30.16S 6HR MIN TEMP: 6; 6HR MAX TEMP: 11; MT WASHINGTON MOCLDY 10 -13 34 W35 N/A WCI -13 6HR MIN TEMP: 9; 6HR MAX TEMP: 13; $$ VTZ005-007-008-111300- VERMONT CITY SKY/WX TMP DP RH WIND PRES REMARKS ST JOHNSBURY N/A -2 -6 83 MISG 30.15S MONTPELIER FAIR -1 -4 87 CALM 30.15R BURLINGTON FAIR 8 4 83 E5 30.15F $$ MAZ007-012-024-CTZ003-RIZ002-NYZ038-NYZ072-111300- SOUTHERN NEW ENGLAND AND NY CITY SKY/WX TMP DP RH WIND PRES REMARKS BOSTON FAIR 24 10 55 NW7 30.20S WORCESTER FAIR 20 10 65 W5 30.12S NANTUCKET FAIR 28 24 85 N6 30.18R PROVIDENCE FAIR 18 14 84 CALM 30.20S HARTFORD FAIR 12 10 92 CALM 30.19S ALBANY FAIR 14 9 80 CALM 30.18F NEW YORK CITY FAIR 30 20 66 N6 30.17S $$ ANZ081-ANZ082-ANZ150-NHZ014-MEZ023>029-111300- COASTAL MARINE OBSERVATIONS STATION/POSITION TIME TEMP WIND PRES WAVE AIR SEA DIR/SP/G HT/PER (UTC) (F) (DEG/KT/KT) (MB) (FT/S) MOUNT DESERT ROC 1200 22 40/ 4/ 6 1022.9R MATINICUS ROCK 1100 22 40/ 2/ 4 1022.2R ISLE OF SHOALS 1100 26 340/ 10/ 11 1022.0R JEFFREYS LEDGE 1138 46 N/A 2/ 4 CASHES LEDGE BUO 1150 26 46 1023.1R 2/ 4 $$ .............KEY.............. WCI - WIND CHILL TC - TEMPERATURE IN CELSIUS VSB - VISIBILITY IN MILES HX - HEAT INDEX FAIR- INDICATES FEW OR NO CLOUDS BELOW 12,000 FT, WITH NO SIGNIFICANT WEATHER AND/OR OBSTRUCTIONS TO VISIBILITY.

USA.gov is the U.S. government's official web portal to all federal, state and local government web resources and services.